Temperature
18 18 18 18 18 18 18 18 18 18 18 18 18 18 18 18 18 18 18 18 17 17 17 17 17 17 17 17 17 16 16 16 16 16 16 16 16 16 16 15 15 15 15
18 18 18 18 18 18 18 18 18 18 18 18 18 18 18 18 18 18 18 18 18 17 17 17 17 17 17 17 17 16 16 16 16 16 16 16 16 16 16 15 15 15 15
18 18 18 18 18 18 18 18 18 18 18 18 18 18 18 18 18 18 18 18 17 17 17 17 17 17 17 17 17 17 17 16 16 16 16 16 16 16 16 15 15 15 15
18 18 18 18 18 18 18 18 18 18 18 18 17 17 18 18 18 18 17 17 17 17 17 17 17 17 17 17 17 17 17 16 16 16 16 16 16 16 16 16 15 15 15
18 18 18 18 18 18 18 18 18 18 18 18 18 18 17 18 18 17 17 17 17 17 17 17 17 17 17 17 17 17 17 16 16 16 16 16 16 16 16 16 15 15 15
19 18 18 18 18 18 18 18 18 18 18 18 18 17 17 17 17 17 17 17 17 17 17 17 17 17 17 17 17 17 17 16 16 16 16 16 16 16 16 15 15 15 15
19 18 18 18 18 18 18 18 18 18 18 18 18 17 17 17 17 17 17 17 17 17 17 17 17 17 17 17 17 17 16 16 16 16 16 16 16 16 15 15 15 15 15
19 19 18 18 18 18 18 18 18 18 18 18 18 17 17 17 17 17 17 17 17 17 17 17 17 17 17 17 17 16 16 16 16 16 16 16 16 16 15 15 15 15 15
19 19 19 18 18 18 18 18 18 18 18 18 18 18 18 18 18 18 18 17 17 17 17 17 17 17 17 17 17 17 16 16 16 16 16 16 16 16 16 15 15 15 15
19 19 19 18 18 18 18 18 18 18 18 18 18 18 18 18 18 18 18 18 18 18 17 17 17 17 17 17 17 17 16 16 16 16 16 16 16 16 16 16 15 15 15
19 19 18 18 18 18 18 18 18 18 18 18 18 18 18 18 18 18 18 18 18 18 18 18 17 17 17 17 17 17 17 16 16 16 16 16 16 16 16 16 15 15 15
18 18 18 18 18 18 18 18 18 18 18 18 18 18 18 18 18 18 18 18 18 18 18 18 18 18 17 17 17 17 17 17 17 16 16 16 16 16 16 16 15 15 15
18 18 18 18 18 18 18 18 18 18 18 18 18 18 18 18 18 18 18 18 18 18 18 18 18 18 18 17 17 17 17 17 17 17 16 16 16 16 16 16 15 15 15
19 18 18 18 18 18 18 18 18 18 18 17 17 18 18 18 18 18 18 18 18 18 18 18 18 18 18 18 17 17 17 17 17 17 17 16 16 16 16 16 16 15 15
18 18 18 18 18 18 18 18 18 18 17 17 17 17 17 18 17 17 17 17 18 17 18 18 18 18 18 18 18 17 17 17 17 17 17 16 16 16 16 16 16 16 16
18 18 18 18 18 18 18 17 17 18 17 17 17 17 17 17 17 17 17 17 17 17 17 18 18 18 18 18 18 17 17 17 17 17 17 17 16 16 16 16 16 16 16
18 18 18 18 18 18 18 17 17 17 17 17 17 17 17 17 17 17 17 17 17 17 17 17 17 18 17 18 17 17 17 17 17 17 17 17 16 16 16 16 16 16 16
18 18 18 17 17 18 17 18 17 17 17 17 17 17 17 17 17 17 17 17 17 17 17 17 17 17 17 17 17 17 17 17 17 17 17 16 16 16 16 16 16 16 16
17 17 17 17 17 17 17 17 17 17 17 17 17 17 17 17 17 17 17 17 17 17 17 17 17 17 17 17 17 17 17 17 17 17 16 16 16 16 16 16 16 16 16
17 17 17 17 17 17 17 17 17 17 17 17 17 16 16 16 17 17 17 17 16 16 16 16 16 17 17 17 17 17 17 16 16 16 16 16 16 16 16 16 16 16 16
17 17 17 17 17 17 17 17 17 17 17 17 16 16 16 16 16 16 16 16 16 16 16 16 16 16 16 16 16 16 16 16 16 16 16 16 16 16 16 15 15 15 15
17 17 17 17 17 17 17 17 17 17 16 16 16 16 16 16 16 16 16 16 16 16 16 16 16 16 16 16 16 16 16 16 16 16 16 16 15 15 15 15 15 15 15
17 16 16 16 16 16 16 16 16 16 16 16 16 16 16 16 16 16 16 16 16 16 16 16 16 16 16 16 16 15 15 15 15 15 15 15 15 15 15 15 15 14 14
16 16 16 16 16 16 16 16 16 16 16 16 16 16 16 16 16 16 16 16 16 16 15 15 15 15 15 15 15 15 15 15 15 15 14 14 14 14 14 14 14 14 14
16 16 16 15 15 15 15 16 16 16 15 15 15 15 15 15 15 15 15 15 15 15 15 15 15 15 14 14 14 14 14 14 14 14 14 14 14 14 14 13 13 13 13
15 15 15 15 15 15 15 15 15 15 15 15 15 15 15 15 15 15 15 15 15 15 14 14 14 14 14 14 14 14 13 13 13 13 13 13 13 13 13 13 13 13 13
Wind_Speed
6 6 6 7 6 6 5 4 3 2 2 3 5 7 9 10 11 11 11 14 13 13 13 12 12 12 11 11 10 10 10 9 9 9 9 9 9 9 9 8 8 8 7
9 6 5 5 6 7 7 5 4 3 2 3 4 7 9 10 11 11 11 13 13 13 12 12 12 11 11 11 10 10 10 10 9 9 9 9 9 8 8 9 8 8 7
11 8 5 5 6 8 7 5 3 3 2 3 3 5 7 9 10 11 11 12 12 12 13 12 12 12 11 11 11 10 10 10 10 9 9 10 9 9 8 8 8 8 8
13 9 5 5 8 8 6 4 2 3 2 2 3 3 5 7 9 10 11 12 12 11 13 13 13 13 12 12 12 11 11 11 11 10 10 10 10 10 9 9 9 8 8
14 10 6 6 9 6 4 4 2 3 3 2 3 3 3 4 5 9 9 11 13 13 13 14 14 14 13 13 13 12 12 12 12 12 11 11 11 11 11 10 10 9 9
13 11 7 7 8 5 4 3 3 3 3 3 2 2 2 3 4 5 7 10 11 13 13 13 13 13 14 14 14 13 13 13 13 13 13 12 12 12 12 11 11 10 10
13 10 6 5 5 5 6 6 4 3 2 2 3 1 2 1 3 4 5 5 8 12 13 14 13 13 12 15 15 15 14 14 14 14 13 13 13 13 13 12 12 11 11
12 10 7 6 6 5 5 5 4 3 2 3 4 3 1 3 3 4 4 5 7 9 10 13 14 14 13 13 15 17 16 15 15 14 14 14 14 14 13 13 13 12 12
12 10 9 7 6 6 6 6 5 6 4 3 3 4 4 4 3 3 4 5 6 5 6 11 14 16 16 15 15 17 18 18 17 16 16 16 16 15 15 14 14 13 13
11 11 10 9 7 6 6 6 6 5 5 4 3 3 3 4 3 2 3 3 5 7 7 8 11 14 17 16 17 18 20 20 19 18 17 17 16 16 16 15 15 14 14
8 10 10 8 7 7 7 6 6 6 5 5 4 3 2 2 3 3 3 3 3 5 6 7 8 11 15 16 17 19 21 22 21 20 19 18 18 17 17 16 15 15 14
6 7 9 8 8 7 8 7 7 7 6 6 5 4 4 3 4 4 4 4 4 4 5 5 6 9 14 16 18 19 22 23 23 22 21 20 19 19 18 18 17 16 15
6 8 8 7 7 7 8 7 7 7 7 7 7 5 5 5 4 4 4 4 4 4 3 4 6 9 12 15 17 20 22 23 23 23 22 21 21 20 20 19 18 17 16
8 8 8 8 8 8 8 7 7 8 7 8 8 7 5 5 4 4 5 4 2 3 3 5 3 7 11 13 17 20 18 22 23 23 23 22 22 21 20 19 18 18 17
7 8 8 9 8 8 8 8 7 7 7 8 8 7 6 5 4 4 4 5 5 4 5 5 4 5 9 12 15 16 16 19 22 23 23 23 22 21 21 20 20 19 18
7 7 8 8 8 8 8 8 7 7 7 7 6 7 7 6 5 4 4 4 5 6 5 5 5 4 5 8 12 13 15 17 20 21 22 22 22 22 21 21 20 19 19
6 7 8 8 8 9 8 8 9 8 9 9 8 8 9 7 5 5 4 4 4 5 6 5 3 3 3 4 4 9 11 12 13 18 21 21 22 22 21 21 20 19 19
5 6 7 7 8 9 9 9 10 9 9 9 9 8 8 7 7 6 5 5 5 5 6 6 4 3 4 4 4 5 7 9 11 14 18 19 20 21 21 20 20 19 19
4 4 5 7 7 8 8 8 9 8 9 9 8 8 8 7 7 6 6 6 5 5 5 5 5 3 3 2 2 3 4 4 7 10 13 15 17 18 19 19 18 18 18
4 4 5 6 6 7 7 7 7 7 8 7 7 8 8 8 8 8 7 7 6 5 4 4 4 3 3 2 2 2 3 3 5 6 7 9 11 15 16 16 17 17 17
3 3 4 4 5 5 6 6 6 7 7 7 7 7 8 9 11 9 7 7 6 5 4 4 4 3 3 2 3 3 4 3 3 3 3 3 4 5 8 12 15 16 17
2 1 2 3 4 4 5 7 5 4 5 6 6 6 7 7 9 11 11 10 9 7 7 6 5 5 6 5 3 3 3 3 3 3 3 3 3 4 5 7 11 14 16
1 1 1 1 1 1 2 3 4 3 4 4 5 5 5 5 6 5 6 8 8 9 9 8 7 7 6 5 4 4 4 4 5 3 2 3 3 4 4 7 10 12 13
2 1 2 2 1 1 0 2 2 2 1 1 2 3 3 3 3 4 4 3 4 4 5 5 6 6 5 4 5 5 5 4 3 2 2 3 3 3 3 4 8 11 12
2 2 2 2 2 1 1 1 2 2 1 0 1 1 2 2 3 3 3 3 3 3 2 3 4 4 3 3 3 2 2 2 2 2 2 3 2 2 2 3 5 8 10
3 2 2 2 2 2 2 1 2 2 1 0 1 1 1 0 0 2 2 3 3 3 1 0 0 0 1 0 2 2 3 3 2 2 2 2 2 1 2 2 2 3 4
Wind_Direction
159 162 164 172 178 176 177 179 188 190 169 164 150 146 143 145 148 152 160 162 161 163 163 164 164 163 163 164 164 163 162 161 159 160 161 160 159 161 162 160 157 156 157
163 162 165 171 179 184 185 183 178 162 146 137 136 139 144 150 155 157 161 165 169 171 172 173 174 174 174 174 175 175 174 173 173 174 175 174 173 172 173 175 173 174 175
166 166 167 171 184 185 177 166 153 131 118 125 130 141 148 156 160 164 166 169 175 180 182 184 185 185 185 186 186 186 186 185 187 189 189 186 185 187 186 186 186 187 186
169 167 167 174 180 174 163 154 145 124 125 132 140 154 152 159 165 171 174 179 182 188 193 194 195 195 196 196 196 197 197 197 197 198 198 196 196 197 198 198 199 198 197
172 169 172 176 172 163 160 168 150 144 152 154 160 155 160 167 171 179 186 192 193 196 198 201 203 204 206 206 206 206 206 205 204 206 206 206 206 205 206 207 208 209 210
175 171 172 175 168 158 165 160 153 150 155 163 154 147 178 181 182 187 195 199 202 204 205 205 208 212 216 217 216 214 213 211 210 211 212 212 212 211 212 214 215 217 219
178 174 172 170 170 171 177 167 152 162 169 141 98 54 350 263 212 201 196 191 201 207 206 209 209 211 217 220 221 219 218 218 216 215 215 215 215 214 214 216 218 221 223
179 183 173 175 176 174 175 172 159 159 179 156 139 123 8 329 298 222 203 201 204 204 205 212 211 212 215 216 220 222 223 224 221 219 217 216 216 216 217 218 220 223 226
184 186 179 174 179 178 184 186 175 166 179 194 167 151 160 216 262 289 230 215 205 203 211 212 214 215 217 217 218 222 224 226 225 223 221 220 219 219 219 221 224 226 229
189 188 182 179 182 183 186 194 185 176 167 189 204 202 182 163 167 248 290 248 222 215 214 215 217 217 218 216 217 220 222 224 225 225 224 222 221 220 221 224 228 230 232
194 193 188 184 189 192 194 197 189 188 182 182 187 188 189 181 161 165 234 267 260 235 220 216 214 215 219 217 218 221 222 222 224 225 225 224 223 223 224 227 230 233 234
203 202 194 191 193 195 198 202 200 199 199 194 193 188 178 178 190 179 202 231 242 253 232 221 217 215 219 219 223 224 222 223 224 225 226 226 225 226 227 228 231 234 237
207 207 204 198 197 199 199 198 199 208 204 200 203 206 203 205 185 176 180 209 234 260 260 237 223 218 220 220 223 224 224 224 225 226 227 228 228 228 230 231 233 235 238
211 205 204 203 202 201 203 199 203 210 208 210 214 210 211 215 200 187 181 177 212 269 270 258 242 218 220 218 220 220 223 225 225 226 227 229 229 229 231 232 233 235 238
211 204 202 204 206 206 206 200 208 212 209 212 215 213 216 220 210 203 193 180 181 217 251 251 247 232 218 218 221 219 220 224 225 227 228 229 230 231 232 232 233 235 238
211 204 206 206 209 211 209 206 211 214 209 215 216 215 222 224 217 207 201 197 192 197 232 243 234 238 218 220 221 214 217 224 227 228 228 229 230 231 233 234 236 237 238
208 207 209 208 211 213 209 208 213 212 213 218 220 217 223 219 214 214 209 204 205 196 227 255 244 244 213 217 211 216 223 224 231 232 232 233 233 234 234 236 237 239 240
212 212 209 212 217 215 210 208 215 214 212 216 219 219 224 220 217 219 215 217 219 209 212 238 250 237 224 216 209 212 220 225 227 235 232 233 235 236 235 235 236 238 238
214 215 211 215 221 219 213 211 213 212 212 214 214 216 222 217 225 226 222 225 227 226 213 219 238 236 237 228 207 228 226 231 232 238 232 234 236 236 235 236 238 239 239
208 213 214 214 215 216 212 208 206 210 214 215 214 215 217 214 221 225 230 231 227 227 218 214 229 235 234 234 180 213 242 236 240 242 232 230 236 238 238 238 241 242 241
214 214 214 217 215 212 213 208 207 211 212 216 220 221 222 219 220 222 227 225 219 221 218 216 227 227 229 209 213 210 226 244 253 240 230 236 227 233 237 238 241 243 241
209 191 215 224 224 227 221 211 203 206 206 210 220 228 229 227 229 227 230 224 213 214 216 215 221 222 230 221 214 210 212 219 255 245 201 244 207 231 236 230 234 236 238
168 173 196 190 210 253 193 189 190 190 205 212 219 225 235 238 229 232 241 241 237 231 215 209 215 223 221 216 202 210 210 208 229 234 187 242 230 240 249 243 236 236 238
135 135 115 111 105 0 166 171 158 142 157 211 228 225 225 244 240 221 222 228 238 244 229 220 221 228 224 218 207 210 208 212 242 260 184 228 240 243 254 245 245 240 241
119 108 105 99 88 15 25 150 132 122 126 104 280 239 213 223 247 215 196 213 231 251 238 209 213 221 226 222 193 170 181 186 245 261 214 206 240 245 257 256 258 248 246
117 108 85 76 78 39 33 80 124 128 133 91 15 8 36 147 280 184 186 194 218 245 214 171 170 253 255 251 156 175 199 209 223 251 242 198 234 209 279 285 285 277 262
Height
1561 1562 1564 1566 1567 1569 1570 1571 1573 1573 1574 1575 1576 1576 1577 1578 1578 1579 1579 1580 1581 1581 1582 1582 1583 1584 1584 1585 1586 1586 1587 1588 1588 1589 1590 1590 1591 1591 1591 1592 1592 1593 1593
1561 1563 1564 1566 1568 1569 1571 1572 1573 1574 1575 1575 1576 1577 1578 1578 1579 1580 1580 1581 1581 1582 1582 1583 1584 1584 1585 1586 1586 1587 1587 1588 1589 1589 1590 1590 1591 1591 1592 1592 1593 1593 1593
1561 1563 1565 1566 1568 1569 1571 1572 1574 1575 1575 1576 1577 1578 1578 1579 1580 1580 1581 1581 1582 1582 1583 1583 1584 1585 1585 1586 1586 1587 1588 1588 1589 1589 1590 1590 1591 1591 1591 1592 1592 1593 1593
1561 1563 1564 1566 1567 1569 1571 1572 1573 1575 1576 1576 1577 1578 1579 1579 1580 1580 1581 1581 1582 1582 1583 1583 1584 1585 1585 1586 1586 1586 1587 1587 1588 1588 1589 1590 1590 1591 1591 1591 1592 1592 1592
1560 1562 1563 1565 1566 1568 1570 1571 1573 1574 1575 1576 1577 1578 1579 1579 1580 1580 1581 1581 1582 1582 1583 1583 1584 1584 1584 1585 1585 1586 1586 1587 1587 1587 1588 1588 1589 1590 1590 1590 1591 1591 1591
1559 1561 1562 1564 1565 1567 1569 1570 1572 1573 1575 1576 1577 1578 1578 1579 1579 1580 1580 1581 1581 1582 1582 1582 1583 1583 1583 1584 1584 1585 1585 1585 1586 1586 1587 1587 1588 1588 1589 1589 1589 1590 1590
1557 1559 1561 1563 1564 1566 1567 1569 1570 1572 1573 1575 1576 1577 1578 1578 1578 1579 1579 1580 1580 1580 1581 1581 1582 1582 1582 1582 1583 1583 1583 1584 1584 1584 1585 1585 1586 1586 1587 1587 1588 1588 1588
1556 1557 1559 1561 1563 1564 1566 1567 1568 1570 1572 1573 1574 1575 1576 1578 1577 1577 1578 1578 1578 1579 1579 1580 1580 1580 1581 1581 1581 1581 1582 1582 1582 1582 1583 1583 1584 1584 1585 1585 1585 1586 1586
1554 1555 1557 1559 1560 1562 1564 1565 1567 1568 1569 1571 1572 1573 1574 1574 1574 1575 1575 1576 1576 1577 1577 1578 1578 1578 1579 1579 1579 1579 1579 1580 1580 1580 1581 1581 1582 1582 1582 1583 1583 1583 1584
1551 1553 1554 1556 1558 1559 1561 1563 1564 1566 1567 1568 1570 1571 1572 1572 1572 1572 1573 1573 1574 1574 1575 1575 1576 1576 1576 1577 1577 1577 1577 1578 1578 1578 1578 1579 1579 1580 1580 1580 1581 1581 1581
1548 1550 1551 1553 1554 1556 1558 1560 1561 1563 1564 1565 1567 1568 1569 1570 1570 1570 1570 1571 1571 1572 1572 1572 1573 1573 1574 1574 1574 1575 1575 1575 1576 1576 1576 1576 1577 1577 1577 1578 1578 1578 1579
1545 1546 1548 1549 1551 1552 1554 1555 1557 1559 1560 1562 1563 1564 1565 1566 1567 1567 1568 1568 1568 1569 1569 1569 1570 1570 1570 1571 1572 1572 1572 1573 1573 1573 1574 1574 1574 1574 1575 1575 1575 1576 1576
1540 1542 1544 1545 1547 1549 1550 1552 1553 1555 1556 1558 1559 1561 1562 1563 1564 1565 1565 1565 1565 1565 1566 1566 1566 1567 1567 1568 1568 1569 1569 1570 1570 1570 1570 1571 1571 1571 1571 1572 1572 1572 1573
1537 1538 1540 1541 1543 1545 1546 1548 1549 1550 1552 1554 1555 1557 1558 1559 1561 1561 1562 1562 1562 1562 1562 1562 1562 1563 1564 1564 1565 1566 1566 1567 1567 1567 1567 1567 1568 1568 1568 1569 1569 1569 1569
1533 1534 1535 1537 1539 1540 1542 1543 1544 1546 1547 1549 1551 1552 1554 1555 1556 1557 1558 1559 1560 1559 1558 1558 1559 1559 1560 1561 1561 1562 1562 1563 1563 1564 1564 1564 1564 1564 1565 1565 1565 1565 1566
1529 1530 1531 1532 1534 1535 1537 1538 1540 1541 1542 1544 1546 1547 1549 1550 1551 1553 1554 1555 1555 1555 1554 1554 1555 1555 1556 1557 1557 1558 1558 1559 1559 1560 1560 1560 1560 1560 1561 1561 1561 1561 1562
1525 1525 1526 1528 1529 1531 1532 1533 1535 1536 1538 1539 1540 1542 1543 1545 1546 1548 1549 1550 1550 1550 1550 1550 1551 1551 1552 1553 1553 1554 1555 1555 1555 1555 1556 1556 1556 1556 1556 1557 1557 1557 1557
1520 1521 1522 1523 1524 1526 1527 1529 1530 1531 1533 1534 1535 1537 1538 1540 1541 1542 1544 1544 1545 1545 1546 1545 1546 1547 1548 1549 1549 1550 1550 1551 1551 1551 1551 1552 1552 1552 1552 1552 1552 1552 1552
1516 1517 1518 1519 1520 1521 1523 1524 1526 1527 1528 1529 1531 1532 1533 1534 1536 1537 1538 1539 1540 1540 1541 1541 1541 1542 1543 1544 1544 1545 1546 1546 1546 1547 1547 1547 1547 1547 1547 1547 1547 1547 1547
1512 1513 1514 1515 1516 1517 1518 1520 1521 1522 1523 1525 1526 1527 1528 1530 1531 1532 1533 1534 1534 1535 1536 1536 1536 1537 1538 1539 1540 1540 1540 1541 1541 1542 1542 1542 1542 1542 1542 1542 1542 1542 1542
1509 1510 1511 1511 1512 1513 1514 1515 1516 1518 1519 1520 1522 1523 1524 1525 1526 1527 1528 1528 1529 1530 1531 1531 1532 1532 1533 1534 1534 1535 1536 1536 1536 1537 1537 1536 1537 1536 1537 1537 1537 1537 1536
1506 1507 1507 1508 1508 1509 1510 1512 1513 1514 1515 1516 1517 1518 1519 1520 1521 1522 1523 1524 1525 1525 1526 1526 1527 1527 1528 1529 1530 1530 1531 1531 1531 1532 1532 1531 1532 1531 1531 1531 1531 1531 1531
1504 1504 1505 1505 1506 1506 1507 1508 1509 1510 1511 1512 1513 1514 1515 1516 1517 1517 1518 1519 1520 1520 1521 1522 1522 1522 1523 1524 1525 1525 1525 1525 1525 1526 1527 1526 1526 1525 1525 1525 1525 1525 1525
1502 1502 1503 1503 1503 1504 1504 1505 1506 1507 1508 1509 1510 1510 1511 1511 1512 1513 1513 1513 1514 1515 1515 1516 1517 1517 1518 1519 1520 1520 1521 1521 1521 1521 1521 1520 1520 1520 1520 1519 1519 1519 1519
1500 1500 1501 1501 1502 1502 1503 1503 1504 1504 1505 1505 1506 1507 1507 1508 1508 1509 1509 1509 1509 1509 1510 1511 1512 1512 1513 1513 1514 1515 1515 1515 1514 1515 1516 1515 1514 1514 1514 1514 1514 1514 1513
1498 1499 1499 1500 1500 1501 1501 1502 1502 1502 1502 1503 1503 1504 1504 1504 1505 1505 1505 1505 1505 1505 1506 1506 1507 1507 1507 1508 1508 1509 1510 1510 1509 1509 1510 1510 1510 1510 1509 1508 1508 1508 1508